ARG1867 SAWE-SABE

Flight info

Callsign ARG1867
Flight time N/A
Altitude 35000
Route UTNOS UT662 SALVU/N0453F370 UT662 DIL UZ117 GBE GBE8R
Aircraft B738/M-SDE2E3FGHIRWXY/LB1

Departure

Time 2026-04-25 20:03
Airport Hermes Quijada International Airport (SAWE)

Arrival

Time N/A
Airport Aeroparque Jorge Newbery (SABE)
Time Latitude Longitude Altitude Speed Heading
2026-04-25 19:58 -53.78063 -67.75327 36 ft 6 kts 308°
2026-04-25 19:59 -53.78014 -67.75345 40 ft 9 kts 357°
2026-04-25 19:59 -53.77939 -67.75350 40 ft 12 kts 358°
2026-04-25 19:59 -53.77852 -67.75318 40 ft 14 kts 49°
2026-04-25 19:59 -53.77802 -67.75186 42 ft 14 kts 58°
2026-04-25 20:00 -53.77762 -67.75025 43 ft 17 kts 76°
2026-04-25 20:00 -53.77754 -67.74880 40 ft 21 kts 87°
2026-04-25 20:00 -53.77744 -67.74491 39 ft 28 kts 87°
2026-04-25 20:00 -53.77735 -67.74161 39 ft 27 kts 87°
2026-04-25 20:01 -53.77721 -67.73621 43 ft 13 kts 86°
2026-04-25 20:01 -53.77693 -67.73514 43 ft 9 kts 79°
2026-04-25 20:01 -53.77714 -67.73465 43 ft 3 kts 194°
2026-04-25 20:02 -53.77719 -67.73493 42 ft 4 kts 271°
2026-04-25 20:02 -53.77720 -67.73621 43 ft 32 kts 268°
2026-04-25 20:02 -53.77743 -67.74496 39 ft 114 kts 267°
2026-04-25 20:02 -53.77781 -67.76200 241 ft 163 kts 265°
2026-04-25 20:03 -53.77781 -67.78144 1361 ft 161 kts 265°
2026-04-25 20:03 -53.77541 -67.80046 2306 ft 182 kts 289°
2026-04-25 20:03 -53.76695 -67.81901 2674 ft 216 kts 314°
2026-04-25 20:03 -53.75327 -67.83268 3008 ft 246 kts 337°
2026-04-25 20:04 -53.73544 -67.83496 3295 ft 277 kts 12°
2026-04-25 20:04 -53.71831 -67.81864 3740 ft 293 kts 53°
2026-04-25 20:04 -53.70968 -67.78854 4709 ft 281 kts 86°
2026-04-25 20:04 -53.70733 -67.75642 5841 ft 273 kts 89°
2026-04-25 20:05 -53.70084 -67.72583 6732 ft 287 kts 59°
2026-04-25 20:05 -53.68764 -67.70027 7615 ft 292 kts 46°
2026-04-25 20:05 -53.67204 -67.67803 8474 ft 296 kts 39°
2026-04-25 20:05 -53.65520 -67.65760 9328 ft 301 kts 36°
2026-04-25 20:06 -53.63755 -67.63816 10127 ft 306 kts 33°
2026-04-25 20:06 -53.61891 -67.61879 10430 ft 328 kts 32°
2026-04-25 20:06 -53.59858 -67.59853 10717 ft 348 kts 31°
2026-04-25 20:06 -53.57725 -67.57788 11282 ft 359 kts 30°
2026-04-25 20:07 -53.55547 -67.55720 12175 ft 358 kts 30°
2026-04-25 20:07 -53.53367 -67.53674 13003 ft 360 kts 30°
2026-04-25 20:07 -53.51164 -67.51620 13807 ft 363 kts 29°
2026-04-25 20:07 -53.48952 -67.49568 14586 ft 364 kts 30°
2026-04-25 20:08 -53.46712 -67.47493 15165 ft 372 kts 30°
2026-04-25 20:08 -53.44434 -67.45388 15797 ft 377 kts 30°
2026-04-25 20:08 -53.42115 -67.43248 16417 ft 383 kts 30°
2026-04-25 20:08 -53.39764 -67.41081 17006 ft 389 kts 30°
2026-04-25 20:09 -53.37376 -67.38883 17613 ft 395 kts 30°
2026-04-25 20:09 -53.34951 -67.36654 18225 ft 399 kts 30°
2026-04-25 20:09 -53.32533 -67.34434 18778 ft 403 kts 30°
2026-04-25 20:09 -53.30064 -67.32171 19371 ft 407 kts 30°
2026-04-25 20:10 -53.27573 -67.29890 19922 ft 410 kts 30°
2026-04-25 20:10 -53.25061 -67.27594 20479 ft 414 kts 30°
2026-04-25 20:10 -53.22515 -67.25269 21003 ft 418 kts 30°
2026-04-25 20:10 -53.19952 -67.22932 21567 ft 421 kts 30°
2026-04-25 20:11 -53.17371 -67.20582 22127 ft 424 kts 30°
2026-04-25 20:11 -53.14771 -67.18218 22667 ft 427 kts 30°
2026-04-25 20:11 -53.12149 -67.15837 23193 ft 431 kts 30°
2026-04-25 20:11 -53.09509 -67.13444 23649 ft 434 kts 30°
2026-04-25 20:12 -53.06851 -67.11037 24084 ft 436 kts 30°
2026-04-25 20:12 -53.04175 -67.08616 24512 ft 439 kts 30°
2026-04-25 20:12 -53.01486 -67.06188 24930 ft 442 kts 30°
2026-04-25 20:12 -53.00573 -67.05365 25053 ft 443 kts 30°
2026-04-25 20:13 -52.96051 -67.01291 25720 ft 447 kts 30°
2026-04-25 20:13 -52.93307 -66.98823 26104 ft 450 kts 30°
2026-04-25 20:13 -52.90545 -66.96343 26474 ft 453 kts 30°
2026-04-25 20:13 -52.87760 -66.93845 26825 ft 457 kts 30°
2026-04-25 20:14 -52.84953 -66.91332 27180 ft 459 kts 30°
2026-04-25 20:14 -52.82141 -66.88825 27550 ft 462 kts 29°
2026-04-25 20:14 -52.79294 -66.86311 27903 ft 465 kts 29°
2026-04-25 20:14 -52.76431 -66.83797 28232 ft 467 kts 29°
2026-04-25 20:15 -52.73545 -66.81269 28552 ft 470 kts 29°
2026-04-25 20:15 -52.70647 -66.78733 28874 ft 473 kts 29°
2026-04-25 20:15 -52.67736 -66.76188 29196 ft 475 kts 29°
2026-04-25 20:15 -52.64849 -66.73665 29493 ft 477 kts 29°
2026-04-25 20:16 -52.61906 -66.71096 29792 ft 480 kts 29°
2026-04-25 20:16 -52.58951 -66.68520 30040 ft 482 kts 29°
2026-04-25 20:16 -52.55984 -66.65937 30306 ft 483 kts 28°
2026-04-25 20:16 -52.53019 -66.63359 30623 ft 483 kts 28°
2026-04-25 20:17 -52.50048 -66.60781 30951 ft 482 kts 28°
2026-04-25 20:17 -52.47083 -66.58212 31258 ft 482 kts 28°
2026-04-25 20:17 -52.44116 -66.55645 31524 ft 483 kts 28°
2026-04-25 20:17 -52.41148 -66.53081 31808 ft 483 kts 28°
2026-04-25 20:18 -52.38173 -66.50514 32105 ft 483 kts 28°
2026-04-25 20:18 -52.35193 -66.47948 32388 ft 484 kts 28°
2026-04-25 20:18 -52.32212 -66.45384 32660 ft 484 kts 28°
2026-04-25 20:18 -52.29227 -66.42821 32927 ft 485 kts 28°
2026-04-25 20:19 -52.26241 -66.40261 33202 ft 485 kts 28°
2026-04-25 20:19 -52.23253 -66.37703 33469 ft 485 kts 28°
2026-04-25 20:19 -52.17269 -66.32593 33954 ft 486 kts 28°
2026-04-25 20:20 -52.14274 -66.30040 34202 ft 485 kts 28°
2026-04-25 20:20 -52.11288 -66.27500 34435 ft 485 kts 28°
2026-04-25 20:20 -52.08298 -66.24960 34639 ft 485 kts 27°
2026-04-25 20:20 -52.05306 -66.22422 34769 ft 486 kts 27°
2026-04-25 20:21 -51.99294 -66.17334 34770 ft 486 kts 27°
2026-04-25 20:21 -51.94322 -66.13137 34766 ft 483 kts 27°
2026-04-25 20:22 -51.89333 -66.08936 34769 ft 481 kts 27°
2026-04-25 20:22 -51.81443 -66.02314 34768 ft 479 kts 27°
2026-04-25 20:23 -51.75410 -65.97803 34775 ft 477 kts 20°
2026-04-25 20:23 -51.69176 -65.94102 34768 ft 478 kts 19°
2026-04-25 20:24 -51.62907 -65.90478 34771 ft 479 kts 19°
2026-04-25 20:24 -51.56638 -65.86788 34770 ft 481 kts 19°
2026-04-25 20:25 -51.50357 -65.83047 34772 ft 482 kts 19°
2026-04-25 20:25 -51.44069 -65.79297 34769 ft 483 kts 19°
2026-04-25 20:26 -51.37756 -65.75545 34767 ft 484 kts 19°
2026-04-25 20:26 -51.31437 -65.71804 34770 ft 484 kts 19°
2026-04-25 20:27 -51.25120 -65.68075 34767 ft 484 kts 19°
2026-04-25 20:27 -51.18813 -65.64365 34767 ft 483 kts 19°
2026-04-25 20:28 -51.12519 -65.60671 34767 ft 481 kts 19°
2026-04-25 20:28 -51.06278 -65.57021 34768 ft 480 kts 19°
2026-04-25 20:29 -51.00015 -65.53367 34768 ft 479 kts 19°
2026-04-25 20:29 -50.93761 -65.49729 34765 ft 478 kts 18°
2026-04-25 20:30 -50.87525 -65.46113 34768 ft 477 kts 18°
2026-04-25 20:30 -50.81300 -65.42512 34770 ft 476 kts 18°
2026-04-25 20:31 -50.75080 -65.38925 34769 ft 475 kts 18°
2026-04-25 20:31 -50.68870 -65.35354 34769 ft 475 kts 18°
2026-04-25 20:32 -50.62663 -65.31795 34771 ft 475 kts 18°
2026-04-25 20:32 -50.56457 -65.28246 34772 ft 475 kts 18°
2026-04-25 20:33 -50.50244 -65.24704 34769 ft 475 kts 18°
2026-04-25 20:33 -50.46089 -65.22340 34774 ft 475 kts 18°
2026-04-25 20:34 -50.37820 -65.17649 34768 ft 475 kts 18°
2026-04-25 20:34 -50.32655 -65.14728 34766 ft 475 kts 18°
2026-04-25 20:35 -50.25393 -65.10631 34768 ft 475 kts 17°
2026-04-25 20:35 -50.20229 -65.07727 34768 ft 474 kts 17°
2026-04-25 20:36 -50.14018 -65.04242 34771 ft 474 kts 17°
2026-04-25 20:36 -50.07812 -65.00770 34769 ft 474 kts 17°
2026-04-25 20:37 -50.01606 -64.97307 34769 ft 473 kts 17°
2026-04-25 20:37 -49.95409 -64.93859 34766 ft 473 kts 17°
2026-04-25 20:38 -49.89221 -64.90426 34765 ft 472 kts 17°
2026-04-25 20:38 -49.83039 -64.87004 34764 ft 472 kts 17°
2026-04-25 20:39 -49.76859 -64.83593 34764 ft 471 kts 17°
2026-04-25 20:39 -49.71685 -64.80745 34764 ft 470 kts 17°
2026-04-25 20:40 -49.64524 -64.76813 34766 ft 470 kts 16°
2026-04-25 20:40 -49.58364 -64.73441 34763 ft 469 kts 16°
2026-04-25 20:41 -49.52213 -64.70083 34762 ft 469 kts 16°
2026-04-25 20:41 -49.46068 -64.66737 34759 ft 468 kts 16°
2026-04-25 20:42 -49.39921 -64.63399 34758 ft 468 kts 16°
2026-04-25 20:42 -49.33778 -64.60072 34758 ft 468 kts 16°
2026-04-25 20:43 -49.27641 -64.56757 34757 ft 468 kts 15°
2026-04-25 20:43 -49.21549 -64.53464 34754 ft 467 kts 16°
2026-04-25 20:44 -49.15375 -64.50136 34758 ft 467 kts 16°
2026-04-25 20:44 -49.09287 -64.46872 34753 ft 467 kts 15°
2026-04-25 20:45 -49.03154 -64.43595 34746 ft 467 kts 15°
2026-04-25 20:45 -48.97027 -64.40329 34752 ft 467 kts 15°
2026-04-25 20:46 -48.90894 -64.37069 34743 ft 467 kts 15°
2026-04-25 20:46 -48.84766 -64.33819 34743 ft 466 kts 15°
2026-04-25 20:47 -48.78636 -64.30576 34740 ft 466 kts 15°
2026-04-25 20:47 -48.72510 -64.27344 34742 ft 466 kts 15°
2026-04-25 20:48 -48.68453 -64.25209 34736 ft 466 kts 15°
2026-04-25 20:48 -48.60263 -64.20909 34734 ft 466 kts 15°
2026-04-25 20:49 -48.54140 -64.17704 34734 ft 465 kts 15°
2026-04-25 20:49 -48.48023 -64.14510 34729 ft 465 kts 15°
2026-04-25 20:50 -48.41905 -64.11324 34727 ft 465 kts 14°
2026-04-25 20:50 -48.35831 -64.08171 34725 ft 464 kts 14°
2026-04-25 20:51 -48.31742 -64.06052 34721 ft 464 kts 14°
2026-04-25 20:51 -48.23616 -64.01848 34729 ft 466 kts 14°
2026-04-25 20:52 -48.18448 -63.99181 34935 ft 470 kts 14°
2026-04-25 20:52 -48.14355 -63.97071 35231 ft 469 kts 14°
2026-04-25 20:52 -48.11265 -63.95479 35435 ft 469 kts 14°
2026-04-25 20:53 -48.08175 -63.93892 35601 ft 470 kts 14°
2026-04-25 20:53 -48.07129 -63.93355 35655 ft 471 kts 14°